カタログに戻る

ARIANE 5 R/B

運用中GTO
NORAD 26612·ROCKET BODY·🇫🇷 France

打ち上げ Nov 16, 2000 から Guiana Space Centre

Loading…

TLE

経年Source: Space-Track

元期: Sep 14, 2026, 09:49 UTC

1 26612U 00072E   26257.40962731 -.00000354  00000-0  31141-2 0  9995
2 26612   6.9916  25.0191 7343987 149.1719 290.6073  2.01791515190436

AllMySatでARIANE 5 R/Bをリアルタイム追跡

Download on the App Store